Location: ActonStarParty
(42.4766°N, 71.4538°W)
Time: 16:55:23
(UTC-04:00)

ATLAS 5 CENTAUR R/B - Visible Passes

Search period start: 26 March 2017 00:00
Search period end: 05 April 2017 00:00
Orbit: 236 x 14673 km, 60.8° (Epoch: 07 August)

Date Brightness Start Highest point End Pass type
(mag) Time Alt. Az. Time Alt. Az. Time Alt. Az.
26 Mar 6.7 00:17:33 23° ESE 00:28:12 30° ENE 01:21:15 10° NNE visible
26 Mar 6.3 04:44:44 25° WSW 05:06:32 70° NNW 07:23:54 10° ENE visible
27 Mar 5.8 03:00:36 51° SSW 03:10:11 86° ESE 04:59:36 10° NE visible
28 Mar 6.1 01:16:24 43° SE 01:23:30 51° E 02:39:48 10° NE visible
28 Mar 6.7 05:43:37 10° W 06:23:31 62° N 08:43:01 10° E visible
28 Mar 6.9 23:32:08 17° E 23:44:06 23° ENE 00:26:46 10° NNE visible
29 Mar 6.1 03:59:16 35° WSW 04:15:49 75° NW 06:27:03 10° ENE visible
30 Mar 5.8 02:14:55 56° S 02:22:23 76° ESE 04:01:49 10° NE visible
31 Mar 6.3 00:30:29 36° ESE 00:37:46 42° E 01:44:29 10° NE visible
31 Mar 6.6 04:57:36 17° W 05:28:08 64° NNW 07:49:16 10° E visible
31 Mar 7.0 22:46:00 11° E 22:59:54 17° ENE 23:30:49 10° NE visible
01 Apr 5.9 03:13:05 45° SW 03:25:31 81° NW 05:28:23 10° ENE visible
02 Apr 5.9 01:28:30 55° SSE 01:34:42 66° ESE 03:04:05 10° NE visible
02 Apr 7.0 05:58:21 10° W 06:53:10 63° N 09:02:34 10° ESE visible
02 Apr 6.5 23:43:52 29° ESE 23:52:03 34° ENE 00:48:52 10° NE visible
03 Apr 6.4 04:10:56 25° WSW 04:34:10 67° NNW 06:53:14 10° E visible
03 Apr 7.2 22:05:09 10° ENE 22:15:40 12° NE 22:31:08 10° NE visible
04 Apr 5.8 02:26:12 53° SW 02:35:34 89° NW 04:28:32 10° NE visible
